Time,TemperatureF,DewpointF,PressureIn,WindDirection,WindDirectionDegrees,WindSpeedMPH,WindSpeedGustMPH,Humidity,HourlyPrecipIn,Conditions,Clouds,dailyrainin,SoftwareType,DateUTC
2013-12-19 00:00:00,50.6,45.9,29.97,South,171,1.0,2.0,84,0.00,,,0.00,Wunderground v.1.15,2013-12-19 06:00:00,
2013-12-19 00:10:00,50.8,46.5,29.96,South,171,3.0,3.0,85,0.00,,,0.00,Wunderground v.1.15,2013-12-19 06:10:00,
2013-12-19 00:40:00,50.3,46.0,29.95,South,171,0.0,0.0,85,0.00,,,0.00,Wunderground v.1.15,2013-12-19 06:40:00,
2013-12-19 00:50:00,50.1,46.1,29.95,South,171,0.0,0.0,86,0.00,,,0.00,Wunderground v.1.15,2013-12-19 06:50:00,
2013-12-19 01:00:00,50.3,46.6,29.95,South,171,0.0,0.0,87,0.00,,,0.00,Wunderground v.1.15,2013-12-19 07:00:00,
2013-12-19 01:10:00,50.2,46.5,29.95,South,171,0.0,0.0,87,0.00,,,0.00,Wunderground v.1.15,2013-12-19 07:10:00,
2013-12-19 01:20:00,50.1,46.4,29.94,South,171,0.0,0.0,87,0.00,,,0.00,Wunderground v.1.15,2013-12-19 07:20:00,
2013-12-19 01:30:00,50.3,46.9,29.94,South,171,0.0,1.0,88,0.00,,,0.00,Wunderground v.1.15,2013-12-19 07:30:00,
2013-12-19 01:40:00,50.7,47.3,29.93,South,171,2.0,4.0,88,0.00,,,0.00,Wunderground v.1.15,2013-12-19 07:40:00,
2013-12-19 01:50:00,51.3,48.2,29.93,South,171,5.0,5.0,89,0.00,,,0.00,Wunderground v.1.15,2013-12-19 07:50:00,
2013-12-19 02:00:00,52.2,49.4,29.93,South,171,5.0,5.0,90,0.00,,,0.00,Wunderground v.1.15,2013-12-19 08:00:00,
2013-12-19 02:10:00,53.0,49.8,29.93,SSE,166,6.0,6.0,89,0.00,,,0.00,Wunderground v.1.15,2013-12-19 08:10:00,
2013-12-19 02:20:00,53.4,49.9,29.93,SSE,165,5.0,5.0,88,0.00,,,0.00,Wunderground v.1.15,2013-12-19 08:20:00,
2013-12-19 02:30:00,53.3,50.1,29.92,SSE,165,5.0,5.0,89,0.00,,,0.00,Wunderground v.1.15,2013-12-19 08:30:00,
2013-12-19 02:40:00,53.1,49.9,29.92,SSE,165,2.0,2.0,89,0.00,,,0.00,Wunderground v.1.15,2013-12-19 08:40:00,
2013-12-19 02:50:00,52.8,49.6,29.91,SSE,165,2.0,2.0,89,0.00,,,0.00,Wunderground v.1.15,2013-12-19 08:50:00,
2013-12-19 03:00:00,52.7,49.8,29.91,SSE,165,3.0,3.0,90,0.00,,,0.00,Wunderground v.1.15,2013-12-19 09:00:00,
2013-12-19 03:10:00,52.8,49.9,29.91,SSE,165,1.0,1.0,90,0.00,,,0.00,Wunderground v.1.15,2013-12-19 09:10:00,
2013-12-19 03:20:00,53.0,50.4,29.91,SSE,165,0.0,0.0,91,0.00,,,0.00,Wunderground v.1.15,2013-12-19 09:20:00,
2013-12-19 03:30:00,53.2,50.6,29.91,SSE,165,0.0,0.0,91,0.00,,,0.00,Wunderground v.1.15,2013-12-19 09:30:00,
2013-12-19 03:40:00,53.2,50.6,29.90,SSE,165,0.0,0.0,91,0.00,,,0.00,Wunderground v.1.15,2013-12-19 09:40:00,
2013-12-19 03:50:00,53.2,50.6,29.90,SSE,165,0.0,1.0,91,0.00,,,0.00,Wunderground v.1.15,2013-12-19 09:50:00,
2013-12-19 04:00:00,53.5,50.9,29.89,SSE,165,0.0,0.0,91,0.00,,,0.00,Wunderground v.1.15,2013-12-19 10:00:00,
2013-12-19 04:10:00,53.5,50.9,29.89,SSE,165,0.0,2.0,91,0.00,,,0.00,Wunderground v.1.15,2013-12-19 10:10:00,
2013-12-19 04:20:00,54.8,52.5,29.89,SSE,164,2.0,4.0,92,0.00,,,0.00,Wunderground v.1.15,2013-12-19 10:20:00,
2013-12-19 04:30:00,55.6,52.7,29.89,SSE,165,3.0,3.0,90,0.00,,,0.00,Wunderground v.1.15,2013-12-19 10:30:00,
2013-12-19 04:40:00,56.0,52.8,29.88,SSE,167,4.0,7.0,89,0.00,,,0.00,Wunderground v.1.15,2013-12-19 10:40:00,
2013-12-19 04:50:00,56.3,52.8,29.87,South,173,4.0,4.0,88,0.00,,,0.00,Wunderground v.1.15,2013-12-19 10:50:00,
2013-12-19 05:00:00,56.3,52.8,29.87,South,173,3.0,3.0,88,0.00,,,0.00,Wunderground v.1.15,2013-12-19 11:00:00,
2013-12-19 05:10:00,56.4,52.9,29.86,South,173,2.0,4.0,88,0.00,,,0.00,Wunderground v.1.15,2013-12-19 11:10:00,
2013-12-19 05:20:00,56.3,52.8,29.86,South,173,3.0,5.0,88,0.00,,,0.00,Wunderground v.1.15,2013-12-19 11:20:00,
2013-12-19 05:30:00,56.4,52.9,29.85,South,172,3.0,3.0,88,0.00,,,0.00,Wunderground v.1.15,2013-12-19 11:30:00,
2013-12-19 05:40:00,56.6,53.1,29.85,South,173,4.0,4.0,88,0.00,,,0.00,Wunderground v.1.15,2013-12-19 11:40:00,
2013-12-19 05:50:00,56.6,52.8,29.85,South,173,3.0,3.0,87,0.00,,,0.00,Wunderground v.1.15,2013-12-19 11:50:00,
2013-12-19 06:00:00,56.8,53.0,29.85,South,173,2.0,2.0,87,0.00,,,0.00,Wunderground v.1.15,2013-12-19 12:00:00,
2013-12-19 06:10:00,57.0,53.2,29.84,South,177,5.0,5.0,87,0.00,,,0.00,Wunderground v.1.15,2013-12-19 12:10:00,
2013-12-19 06:20:00,57.0,53.2,29.85,South,180,4.0,4.0,87,0.00,,,0.00,Wunderground v.1.15,2013-12-19 12:20:00,
2013-12-19 06:30:00,57.7,53.5,29.85,South,184,5.0,5.0,86,0.00,,,0.00,Wunderground v.1.15,2013-12-19 12:30:00,
2013-12-19 06:40:00,57.9,53.7,29.85,South,188,5.0,13.0,86,0.00,,,0.00,Wunderground v.1.15,2013-12-19 12:40:00,
2013-12-19 06:50:00,58.5,54.0,29.85,South,188,6.0,6.0,85,0.00,,,0.00,Wunderground v.1.15,2013-12-19 12:50:00,
2013-12-19 07:00:00,58.7,53.9,29.85,South,186,6.0,6.0,84,0.00,,,0.00,Wunderground v.1.15,2013-12-19 13:00:00,
2013-12-19 07:10:00,58.9,54.1,29.85,South,190,5.0,7.0,84,0.00,,,0.00,Wunderground v.1.15,2013-12-19 13:10:00,
2013-12-19 07:20:00,59.3,54.1,29.85,South,184,7.0,7.0,83,0.00,,,0.00,Wunderground v.1.15,2013-12-19 13:20:00,
2013-12-19 07:30:00,59.3,54.1,29.85,South,189,6.0,6.0,83,0.00,,,0.00,Wunderground v.1.15,2013-12-19 13:30:00,
2013-12-19 07:40:00,59.4,54.2,29.86,SSW,192,5.0,5.0,83,0.00,,,0.00,Wunderground v.1.15,2013-12-19 13:40:00,
2013-12-19 07:50:00,59.4,54.2,29.85,South,182,5.0,6.0,83,0.00,,,0.00,Wunderground v.1.15,2013-12-19 13:50:00,
2013-12-19 08:20:00,59.7,54.2,29.85,South,181,5.0,9.0,82,0.00,,,0.00,Wunderground v.1.15,2013-12-19 14:20:00,
2013-12-19 08:30:00,60.0,54.2,29.85,South,184,5.0,5.0,81,0.00,,,0.00,Wunderground v.1.15,2013-12-19 14:30:00,
2013-12-19 08:40:00,60.5,54.3,29.85,South,182,7.0,13.0,80,0.00,,,0.00,Wunderground v.1.15,2013-12-19 14:40:00,
2013-12-19 08:50:00,60.9,54.3,29.85,South,182,8.0,8.0,79,0.00,,,0.00,Wunderground v.1.15,2013-12-19 14:50:00,
2013-12-19 09:00:00,61.2,54.6,29.86,SSW,198,7.0,13.0,79,0.00,,,0.00,Wunderground v.1.15,2013-12-19 15:00:00,
2013-12-19 09:10:00,61.6,54.7,29.86,South,188,9.0,9.0,78,0.00,,,0.00,Wunderground v.1.15,2013-12-19 15:10:00,
2013-12-19 09:20:00,62.0,54.7,29.86,South,186,10.0,10.0,77,0.00,,,0.00,Wunderground v.1.15,2013-12-19 15:20:00,
2013-12-19 09:30:00,62.3,54.6,29.86,SSW,200,11.0,13.0,76,0.00,,,0.00,Wunderground v.1.15,2013-12-19 15:30:00,
2013-12-19 09:40:00,62.6,54.6,29.86,SSW,192,11.0,24.0,75,0.00,,,0.00,Wunderground v.1.15,2013-12-19 15:40:00,
2013-12-19 09:50:00,62.8,54.8,29.87,South,173,12.0,24.0,75,0.00,,,0.00,Wunderground v.1.15,2013-12-19 15:50:00,
2013-12-19 10:00:00,63.1,54.7,29.87,SSW,197,11.0,11.0,74,0.00,,,0.00,Wunderground v.1.15,2013-12-19 16:00:00,
2013-12-19 10:10:00,63.9,55.4,29.86,SW,229,11.0,11.0,74,0.00,,,0.00,Wunderground v.1.15,2013-12-19 16:10:00,
2013-12-19 10:20:00,63.9,55.1,29.87,South,179,10.0,18.0,73,0.00,,,0.00,Wunderground v.1.15,2013-12-19 16:20:00,
2013-12-19 10:30:00,64.3,55.8,29.86,South,179,12.0,12.0,74,0.00,,,0.00,Wunderground v.1.15,2013-12-19 16:30:00,
2013-12-19 10:40:00,65.3,56.0,29.85,SSW,193,12.0,12.0,72,0.00,,,0.00,Wunderground v.1.15,2013-12-19 16:40:00,
2013-12-19 10:50:00,65.0,55.4,29.86,SSW,194,10.0,13.0,71,0.00,,,0.00,Wunderground v.1.15,2013-12-19 16:50:00,
2013-12-19 11:00:00,65.2,55.9,29.85,South,191,10.0,10.0,72,0.00,,,0.00,Wunderground v.1.15,2013-12-19 17:00:00,
2013-12-19 11:10:00,64.9,55.7,29.85,SSW,199,11.0,11.0,72,0.00,,,0.00,Wunderground v.1.15,2013-12-19 17:10:00,
2013-12-19 11:20:00,65.8,56.1,29.84,SSW,204,10.0,10.0,71,0.00,,,0.00,Wunderground v.1.15,2013-12-19 17:20:00,
2013-12-19 11:30:00,66.1,55.6,29.84,SSW,206,10.0,10.0,69,0.00,,,0.00,Wunderground v.1.15,2013-12-19 17:30:00,
2013-12-19 11:40:00,67.0,56.1,29.84,South,182,12.0,12.0,68,0.00,,,0.00,Wunderground v.1.15,2013-12-19 17:40:00,
2013-12-19 11:50:00,67.8,56.4,29.83,South,190,11.0,11.0,67,0.00,,,0.00,Wunderground v.1.15,2013-12-19 17:50:00,
2013-12-19 12:00:00,67.8,56.4,29.83,South,170,12.0,13.0,67,0.00,,,0.00,Wunderground v.1.15,2013-12-19 18:00:00,
2013-12-19 12:10:00,68.8,57.0,29.82,South,183,10.0,13.0,66,0.00,,,0.00,Wunderground v.1.15,2013-12-19 18:10:00,
2013-12-19 12:20:00,68.8,57.0,29.81,South,177,11.0,11.0,66,0.00,,,0.00,Wunderground v.1.15,2013-12-19 18:20:00,
2013-12-19 12:30:00,68.9,56.2,29.80,SSW,200,13.0,13.0,64,0.00,,,0.00,Wunderground v.1.15,2013-12-19 18:30:00,
2013-12-19 12:40:00,68.7,56.0,29.79,SSW,200,12.0,13.0,64,0.00,,,0.00,Wunderground v.1.15,2013-12-19 18:40:00,
2013-12-19 12:50:00,68.8,56.1,29.79,South,169,11.0,19.0,64,0.00,,,0.00,Wunderground v.1.15,2013-12-19 18:50:00,
2013-12-19 13:00:00,68.8,55.7,29.78,SSW,206,13.0,17.0,63,0.00,,,0.00,Wunderground v.1.15,2013-12-19 19:00:00,
2013-12-19 13:10:00,69.0,56.3,29.78,SW,227,9.0,15.0,64,0.00,,,0.00,Wunderground v.1.15,2013-12-19 19:10:00,
2013-12-19 13:20:00,68.8,56.1,29.77,SSW,195,11.0,14.0,64,0.00,,,0.00,Wunderground v.1.15,2013-12-19 19:20:00,
2013-12-19 13:30:00,68.7,56.0,29.76,South,180,14.0,14.0,64,0.00,,,0.00,Wunderground v.1.15,2013-12-19 19:30:00,
2013-12-19 13:40:00,68.4,56.2,29.75,South,177,14.0,14.0,65,0.00,,,0.00,Wunderground v.1.15,2013-12-19 19:40:00,
2013-12-19 13:50:00,67.6,55.8,29.75,South,174,16.0,16.0,66,0.00,,,0.00,Wunderground v.1.15,2013-12-19 19:50:00,
2013-12-19 14:00:00,68.1,55.5,29.75,South,174,16.0,16.0,64,0.00,,,0.00,Wunderground v.1.15,2013-12-19 20:00:00,
2013-12-19 14:10:00,68.4,55.7,29.74,SSW,193,15.0,15.0,64,0.00,,,0.00,Wunderground v.1.15,2013-12-19 20:10:00,
2013-12-19 14:20:00,68.2,56.0,29.74,SSE,165,11.0,15.0,65,0.00,,,0.00,Wunderground v.1.15,2013-12-19 20:20:00,
2013-12-19 14:30:00,67.5,55.3,29.74,South,188,14.0,17.0,65,0.00,,,0.00,Wunderground v.1.15,2013-12-19 20:30:00,
2013-12-19 14:40:00,67.9,55.7,29.75,South,182,10.0,14.0,65,0.00,,,0.00,Wunderground v.1.15,2013-12-19 20:40:00,
2013-12-19 14:50:00,67.4,55.6,29.74,South,169,13.0,13.0,66,0.00,,,0.00,Wunderground v.1.15,2013-12-19 20:50:00,
2013-12-19 15:00:00,67.1,55.8,29.74,South,189,13.0,13.0,67,0.00,,,0.00,Wunderground v.1.15,2013-12-19 21:00:00,
2013-12-19 15:10:00,67.0,55.7,29.74,South,184,11.0,11.0,67,0.00,,,0.00,Wunderground v.1.15,2013-12-19 21:10:00,
2013-12-19 15:20:00,67.2,55.5,29.74,South,184,9.0,9.0,66,0.00,,,0.00,Wunderground v.1.15,2013-12-19 21:20:00,
2013-12-19 15:30:00,67.4,55.6,29.74,South,188,8.0,14.0,66,0.00,,,0.00,Wunderground v.1.15,2013-12-19 21:30:00,
2013-12-19 15:40:00,66.8,55.5,29.73,South,180,11.0,14.0,67,0.00,,,0.00,Wunderground v.1.15,2013-12-19 21:40:00,
2013-12-19 15:50:00,66.7,55.4,29.73,South,187,11.0,11.0,67,0.00,,,0.00,Wunderground v.1.15,2013-12-19 21:50:00,
2013-12-19 16:00:00,66.8,55.5,29.74,South,190,12.0,12.0,67,0.00,,,0.00,Wunderground v.1.15,2013-12-19 22:00:00,
2013-12-19 16:10:00,66.6,55.7,29.74,South,184,13.0,13.0,68,0.00,,,0.00,Wunderground v.1.15,2013-12-19 22:10:00,
2013-12-19 16:20:00,66.2,55.7,29.73,South,175,10.0,10.0,69,0.00,,,0.00,Wunderground v.1.15,2013-12-19 22:20:00,
2013-12-19 16:30:00,65.9,55.4,29.73,South,169,11.0,13.0,69,0.00,,,0.00,Wunderground v.1.15,2013-12-19 22:30:00,
2013-12-19 16:40:00,65.8,55.3,29.73,South,181,11.0,11.0,69,0.00,,,0.00,Wunderground v.1.15,2013-12-19 22:40:00,
2013-12-19 16:50:00,65.6,55.5,29.74,South,175,8.0,8.0,70,0.00,,,0.00,Wunderground v.1.15,2013-12-19 22:50:00,
2013-12-19 17:00:00,65.1,55.5,29.74,South,169,9.0,13.0,71,0.00,,,0.00,Wunderground v.1.15,2013-12-19 23:00:00,
2013-12-19 17:10:00,64.6,55.4,29.74,South,178,9.0,9.0,72,0.00,,,0.00,Wunderground v.1.15,2013-12-19 23:10:00,
2013-12-19 17:20:00,64.2,55.0,29.74,South,175,8.0,13.0,72,0.00,,,0.00,Wunderground v.1.15,2013-12-19 23:20:00,
2013-12-19 17:30:00,63.7,54.9,29.74,SSE,168,9.0,9.0,73,0.00,,,0.00,Wunderground v.1.15,2013-12-19 23:30:00,
2013-12-19 17:40:00,63.1,54.7,29.74,South,175,9.0,9.0,74,0.00,,,0.00,Wunderground v.1.15,2013-12-19 23:40:00,
2013-12-19 17:50:00,62.5,54.5,29.74,South,180,8.0,8.0,75,0.00,,,0.00,Wunderground v.1.15,2013-12-19 23:50:00,
2013-12-19 18:00:00,61.7,54.1,29.75,South,177,6.0,6.0,76,0.00,,,0.00,Wunderground v.1.15,2013-12-20 00:00:00,
2013-12-19 18:10:00,61.3,54.0,29.75,South,175,6.0,6.0,77,0.00,,,0.00,Wunderground v.1.15,2013-12-20 00:10:00,
2013-12-19 18:20:00,60.8,53.9,29.75,South,175,5.0,13.0,78,0.00,,,0.00,Wunderground v.1.15,2013-12-20 00:20:00,
2013-12-19 18:30:00,60.6,54.0,29.75,South,175,4.0,4.0,79,0.00,,,0.00,Wunderground v.1.15,2013-12-20 00:30:00,
2013-12-19 18:40:00,60.1,53.9,29.75,South,175,5.0,13.0,80,0.00,,,0.00,Wunderground v.1.15,2013-12-20 00:40:00,
2013-12-19 18:50:00,59.3,53.5,29.75,South,175,5.0,5.0,81,0.00,,,0.00,Wunderground v.1.15,2013-12-20 00:50:00,
2013-12-19 19:00:00,58.9,53.4,29.75,South,175,3.0,3.0,82,0.00,,,0.00,Wunderground v.1.15,2013-12-20 01:00:00,
2013-12-19 19:10:00,58.5,53.4,29.75,South,175,3.0,3.0,83,0.00,,,0.00,Wunderground v.1.15,2013-12-20 01:10:00,
2013-12-19 19:20:00,58.1,53.0,29.75,South,175,3.0,13.0,83,0.00,,,0.00,Wunderground v.1.15,2013-12-20 01:20:00,
2013-12-19 19:30:00,57.6,53.1,29.75,South,173,5.0,13.0,85,0.00,,,0.00,Wunderground v.1.15,2013-12-20 01:30:00,
2013-12-19 19:40:00,57.5,53.0,29.75,South,173,1.0,1.0,85,0.00,,,0.00,Wunderground v.1.15,2013-12-20 01:40:00,
2013-12-19 19:50:00,57.5,53.3,29.76,South,173,1.0,13.0,86,0.00,,,0.00,Wunderground v.1.15,2013-12-20 01:50:00,
2013-12-19 20:00:00,57.5,53.0,29.76,South,173,2.0,13.0,85,0.00,,,0.00,Wunderground v.1.15,2013-12-20 02:00:00,
2013-12-19 20:10:00,57.2,53.0,29.75,South,173,1.0,1.0,86,0.00,,,0.00,Wunderground v.1.15,2013-12-20 02:10:00,
2013-12-19 20:20:00,56.9,52.8,29.75,South,173,1.0,13.0,86,0.00,,,0.00,Wunderground v.1.15,2013-12-20 02:20:00,
2013-12-19 20:30:00,56.5,52.4,29.75,South,173,1.0,13.0,86,0.00,,,0.00,Wunderground v.1.15,2013-12-20 02:30:00,
2013-12-19 20:40:00,56.0,52.2,29.75,South,173,0.0,13.0,87,0.00,,,0.00,Wunderground v.1.15,2013-12-20 02:40:00,
2013-12-19 20:50:00,55.5,51.7,29.75,South,173,0.0,13.0,87,0.00,,,0.00,Wunderground v.1.15,2013-12-20 02:50:00,
2013-12-19 21:00:00,55.2,51.7,29.74,South,173,0.0,13.0,88,0.00,,,0.00,Wunderground v.1.15,2013-12-20 03:00:00,
2013-12-19 21:10:00,54.9,51.7,29.74,South,173,0.0,13.0,89,0.00,,,0.00,Wunderground v.1.15,2013-12-20 03:10:00,
2013-12-19 21:20:00,54.8,51.9,29.74,South,173,0.0,13.0,90,0.00,,,0.00,Wunderground v.1.15,2013-12-20 03:20:00,
2013-12-19 21:30:00,54.8,51.9,29.74,South,173,0.0,13.0,90,0.00,,,0.00,Wunderground v.1.15,2013-12-20 03:30:00,
2013-12-19 21:40:00,54.6,51.7,29.74,South,173,0.0,13.0,90,0.00,,,0.00,Wunderground v.1.15,2013-12-20 03:40:00,
2013-12-19 21:50:00,54.4,51.5,29.74,South,173,0.0,13.0,90,0.00,,,0.00,Wunderground v.1.15,2013-12-20 03:50:00,
2013-12-19 22:00:00,54.2,51.3,29.74,South,173,0.0,13.0,90,0.00,,,0.00,Wunderground v.1.15,2013-12-20 04:00:00,
2013-12-19 22:10:00,54.0,51.4,29.74,South,173,0.0,13.0,91,0.00,,,0.00,Wunderground v.1.15,2013-12-20 04:10:00,
2013-12-19 22:20:00,54.1,51.8,29.74,South,173,0.0,13.0,92,0.00,,,0.00,Wunderground v.1.15,2013-12-20 04:20:00,
2013-12-19 22:30:00,54.0,51.7,29.74,South,173,0.0,13.0,92,0.00,,,0.00,Wunderground v.1.15,2013-12-20 04:30:00,
2013-12-19 22:40:00,53.9,51.6,29.74,South,173,0.0,13.0,92,0.00,,,0.00,Wunderground v.1.15,2013-12-20 04:40:00,
2013-12-19 22:50:00,53.6,51.3,29.74,South,173,0.0,13.0,92,0.00,,,0.00,Wunderground v.1.15,2013-12-20 04:50:00,
2013-12-19 23:00:00,53.4,51.1,29.74,South,173,0.0,13.0,92,0.00,,,0.00,Wunderground v.1.15,2013-12-20 05:00:00,
2013-12-19 23:10:00,53.4,51.4,29.73,South,173,0.0,13.0,93,0.00,,,0.00,Wunderground v.1.15,2013-12-20 05:10:00,
2013-12-19 23:20:00,53.4,51.4,29.74,South,173,0.0,13.0,93,0.00,,,0.00,Wunderground v.1.15,2013-12-20 05:20:00,
2013-12-19 23:30:00,53.6,51.9,29.73,South,173,0.0,13.0,94,0.00,,,0.00,Wunderground v.1.15,2013-12-20 05:30:00,
2013-12-19 23:40:00,53.8,51.8,29.73,South,173,0.0,13.0,93,0.00,,,0.00,Wunderground v.1.15,2013-12-20 05:40:00,
2013-12-19 23:50:00,53.5,51.5,29.73,South,173,0.0,13.0,93,0.00,,,0.00,Wunderground v.1.15,2013-12-20 05:50:00,